User: anonymous   Login
Location: Unspecified
(0.0000°N, 0.0000°E)
Time: 17:48:52
(UTC+00:00)
Language:

Transit 2A - Orbit

View from above orbital plane
View from above orbital plane
View from above satellite
View from above satellite

Ground track
Ground track

The orbit data is extracted from the following two-line orbital elements,

1 00045U 60007A   16119.20354782  .00000066  00000-0  43388-4 0  9993
2 00045  66.6959  42.9295 0259547 334.0671  24.7605 14.33481101906082
Epoch (UTC): 28 April 2016 04:53:06
Eccentricity: 0.0259547
inclination: 66.6959°
perigee height: 594 km
apogee height: 966 km
right ascension of ascending node: 42.9295°
argument of perigee: 334.0671°
revolutions per day: 14.33481101
mean anomaly at epoch: 24.7605°
orbit number at epoch: 90608

The dashed part of the orbit path shows where the satellite is in the earth's shadow,  

DLR